Miscellaneous Local Product
Issued by NWS Hastings, NE

Home | Current Version | Previous Version | Text Only | Print | Product List | Glossary Off
Versions: 1 2 3 4 5 6 7 8 9 10 11 12 13 14 15 16 17 18 19 20 21 22 23 24 25 26 27 28 29 30 31 32 33 34 35 36 37 38 39 40 41 42 43 44 45 46 47 48 49 50

000
AXUS43 KGID 181702
MISGRI

GID CWA HOURLY WEATHER ROUNDUP
NATIONAL WEATHER SERVICE HASTINGS NE
1100 AM CST THU DEC 18 2014

NOTE: "FAIR" INDICATES FEW OR NO CLOUDS BELOW 12,000 FEET WITH NO
SIGNIFICANT WEATHER AND/OR OBSTRUCTIONS TO VISIBILITY.

...SOUTH CENTRAL NEBRASKA...

CITY           SKY/WX    TMP DP  RH WIND       PRES   REMARKS
GRAND ISLAND   CLOUDY    26  22  84 S5        30.21R WCI  20
HASTINGS       CLOUDY    26  22  84 SW3       30.19R
KEARNEY        CLOUDY    27  23  86 S8        30.18S WCI  18
ORD            CLOUDY    25  22  88 S6        30.17R FOG     WCI  18
YORK           CLOUDY    27 N/A N/A S5        30.22S WCI  21
AURORA         CLOUDY    27  24  90 SW5       30.20S WCI  22
LEXINGTON      CLOUDY    28  24  88 SW6       30.16S WCI  21
HOLDREGE       CLOUDY    26  24  90 S3        30.16S
HEBRON         CLOUDY    28  24  84 CALM      30.23R

...NEBRASKA PANHANDLE...

CITY           SKY/WX    TMP DP  RH WIND       PRES   REMARKS
CHADRON        SUNNY     16  13  88 SW7       30.06R WCI   6
ALLIANCE       SUNNY     16  13  88 W6        30.04R WCI   7
SCOTTSBLUFF    MOSUNNY   10   7  87 NW7       30.08R FOG     WCI  -1
SIDNEY         SUNNY     26  20  77 NW10      30.05R WCI  16

...WESTERN AND NORTH CENTRAL NEBRASKA...

CITY           SKY/WX    TMP DP  RH WIND       PRES   REMARKS
VALENTINE      CLOUDY    26  22  84 SW7       30.09R WCI  18
AINSWORTH      CLOUDY    26  23  90 SW3       30.10S
ONEILL         CLOUDY    25  24  95 S5        30.17R WCI  20
BROKEN BOW     CLOUDY    26  24  92 S9        30.13S WCI  17
IMPERIAL       CLOUDY    25  23  92 W7        30.11R FOG     WCI  17
NORTH PLATTE   CLOUDY    26  23  88 SW8       30.12R WCI  18
MCCOOK         CLOUDY    25  24  96 S3        30.15R

...EASTERN NEBRASKA...

CITY           SKY/WX    TMP DP  RH WIND       PRES   REMARKS
NORFOLK        CLOUDY    27  23  85 S7        30.20F WCI  19
SO SIOUX CITY  CLOUDY    28  21  75 SE6       30.26S WCI  22
TEKAMAH        CLOUDY    28  24  85 SE6       30.26S WCI  22
COLUMBUS       PTSUNNY   27  19  74 SE6       30.23F WCI  20
ALBION         CLOUDY    25  21  84 S5        30.20R WCI  20
OMAHA EPPLEY   LGT SNOW  28  24  85 S6        30.27S FOG     WCI  22
OFFUTT AFB     LGT SNOW  28  25  87 SE5       30.26R FOG     WCI  23
MILLARD        CLOUDY    29  25  84 SE5       30.26S FOG     WCI  24
LINCOLN        CLOUDY    29  25  85 S5        30.25F WCI  24
NEBRASKA CITY  LGT SNOW  29  27  92 SE3       30.25S
BEATRICE       CLOUDY    29  26  89 E5        30.23F FOG     WCI  24
FALLS CITY     CLOUDY    29  26  89 E6        30.26S WCI  23

...NORTHERN KANSAS...

CITY           SKY/WX    TMP DP  RH WIND       PRES   REMARKS
GOODLAND       CLOUDY    24  23  96 S6        30.11R WCI  17
HILL CITY      CLOUDY    28  25  88 W5        30.19R WCI  23
NORTON         CLOUDY    28  23  80 SW5       30.16S WCI  23
PHILLIPSBURG   CLOUDY    30  28  93 CALM      30.20S
SMITH CENTER   CLOUDY    27  23  86 CALM      30.21S FOG
BELOIT         CLOUDY    30  27  86 CALM      30.22S
HAYS           CLOUDY    28  19  69 CALM      30.20R
RUSSELL        CLOUDY    28  26  92 CALM      30.19R FOG
CONCORDIA      CLOUDY    27  26  96 E3        30.22S
SALINA         CLOUDY    30  26  85 N3        30.23S
TOPEKA         CLOUDY    32  28  85 CALM      30.26R FOG



USA.gov is the U.S. government's official web portal to all federal, state and local government web resources and services.